EW7396 Weather Reports


Display with metric or nautical units.
time (UTC)temp
F
wind
direction
speed
MPH
gust
MPH
rain 1hr
in
rain 24hr
in
rain mn
in
humidity
%
barometer
mb
20260506101530 50 0.0 0.0 0.03 0.30 0.30 88 1007.5
20260506100012 50 0.0 0.0 0.06 0.30 0.30 88 1007.5
20260506094519 49 0.0 0.0 0.07 0.28 0.28 89 1007.3
20260506093004 49 0.0 0.0 0.07 0.28 0.28 89 1007.3
20260506091600 49 0.0 0.0 0.08 0.27 0.27 89 1007.3
20260506090055 49 0.0 0.0 0.07 0.24 0.24 89 1007.2
20260506084617 49 0.0 0.0 0.06 0.22 0.22 89 1007.2
20260506083046 49 0.0 0.0 0.06 0.20 0.20 89 1007.1
20260506081549 49 0.0 0.0 0.06 0.19 0.19 89 1007.1
20260506073040 49 0.0 0.0 0.05 0.14 0.14 89 1006.9
20260506071524 49 0.0 0.0 0.04 0.13 0.13 89 1006.8
20260506061507 48 0.0 0.0 0.03 0.09 0.09 89 1006.7
20260506044636 49 0.0 0.0 0.03 0.09 0.04 87 1006.7
20260506043037 49 0.0 0.0 0.02 0.09 0.03 86 1006.8
20260506041531 49 0.0 0.0 0.02 0.08 0.02 85 1006.8
20260506040029 50 0.0 0.0 0.02 0.07 0.02 84 1006.8
20260506034544 50 0.0 0.0 0.01 0.07 0.01 83 1006.9
20260506033019 50 0.0 0.0 0.01 0.07 0.01 82 1006.9
20260506031516 51 0.0 0.0 0.00 0.06 0.00 82 1007.1
20260506030011 51 0.0 0.0 0.00 0.06 0.00 82 1007.2
20260506024506 51 0.0 0.0 0.00 0.07 0.00 82 1007.4
20260506023002 51 0.0 0.0 0.00 0.07 0.00 81 1007.5
20260506021557 51 0.0 0.0 0.00 0.07 0.00 81 1007.6
20260506020053 51 0.0 0.0 0.00 0.07 0.00 81 1007.7
20260506014549 51 0.0 0.0 0.00 0.09 0.00 81 1007.8
20260506013045 51 0.0 0.0 0.00 0.09 0.00 81 1007.8
20260506011540 51 0.0 0.0 0.00 0.09 0.00 82 1007.9
20260506010042 51 0.0 0.0 0.00 0.09 0.00 83 1008.1
20260506004551 51 0.0 0.0 0.00 0.09 0.00 83 1008.2
20260506003038 51 0.0 0.0 0.00 0.09 0.00 84 1008.3
20260506001522 51 0.0 0.0 0.00 0.09 0.00 85 1008.3
20260506000022 51 0.0 0.0 0.00 0.09 0.00 85 1008.5
20260505234524 51 0.0 0.0 0.00 0.09 0.00 86 1008.4
20260505233011 51 0.0 0.0 0.00 0.09 0.00 87 1008.6
20260505231510 52 0.0 0.0 0.00 0.09 0.00 87 1008.8
20260505230105 52 0.0 0.0 0.00 0.09 0.00 88 1008.8
20260505224556 52 0.0 0.0 0.00 0.09 0.00 88 1008.7
20260505223051 52 0.0 0.0 0.00 0.09 0.00 88 1008.8
20260505221547 52 0.0 0.0 0.00 0.09 0.00 89 1008.9
20260505220056 52 0.0 0.0 0.00 0.09 0.00 89 1009.0
20260505214540 52 0.0 0.0 0.00 0.09 0.09 89 1009.1
20260505213035 52 0.0 0.0 0.00 0.09 0.09 89 1009.1
20260505211533 52 0.0 0.0 0.00 0.09 0.09 89 1009.3
20260505210026 52 0.0 0.0 0.00 0.09 0.09 89 1009.3
20260505204522 53 0.0 0.0 0.00 0.09 0.09 89 1009.3
20260505203018 53 0.0 0.0 0.00 0.09 0.09 89 1009.3
20260505201515 53 0.0 0.0 0.00 0.09 0.09 89 1009.4
20260505200009 53 0.0 0.0 0.00 0.09 0.09 89 1009.5
20260505194511 53 0.0 0.0 0.00 0.09 0.09 89 1009.6
20260505193101 53 0.0 0.0 0.00 0.09 0.09 89 1009.5
20260505191600 53 0.0 0.0 0.00 0.09 0.09 89 1009.3
20260505190051 54 0.0 0.0 0.00 0.09 0.09 89 1009.2
20260505184547 54 0.0 0.0 0.00 0.09 0.09 89 1009.3
20260505183044 54 0.0 0.0 0.00 0.09 0.09 88 1009.3
20260505181538 54 0.0 0.0 0.00 0.09 0.09 88 1009.3
20260505180046 54 0.0 0.0 0.00 0.09 0.09 88 1009.3
20260505174538 55 0.0 0.0 0.00 0.09 0.09 88 1009.3
20260505173026 55 0.0 0.0 0.00 0.09 0.09 88 1009.3
20260505171524 55 0.0 0.0 0.00 0.09 0.09 88 1009.3
20260505170024 55 0.0 0.0 0.00 0.09 0.09 88 1009.4
20260505164517 55 0.0 0.0 0.00 0.09 0.09 88 1009.4
20260505163009 55 0.0 0.0 0.00 0.09 0.09 88 1009.5
20260505161503 55 0.0 0.0 0.00 0.09 0.09 88 1009.6
20260505153057 55 0.0 0.0 0.00 0.09 0.09 88 1009.8
20260505151550 55 0.0 0.0 0.00 0.09 0.09 88 1009.8
20260505124513 56 0.0 0.0 0.00 0.09 0.09 88 1010.3
20260505123009 56 0.0 0.0 0.00 0.09 0.09 89 1010.4
20260505121509 56 0.0 0.0 0.00 0.09 0.09 88 1010.4
20260505120008 56 0.0 0.0 0.00 0.09 0.09 88 1010.3
20260505114507 56 0.0 0.0 0.00 0.09 0.09 89 1010.4
20260505113005 56 0.0 0.0 0.00 0.09 0.09 89 1010.3
20260505111611 56 0.0 0.0 0.00 0.09 0.09 88 1010.5